Probability
0 0 0 0 0 0 0 0 0 0 0 0 0 0 0 0 0 0 0 0 0 0 0 0 0 0 0 0 0 0 0 0 0 0 0 0 0 0 0 0 0 0 0 0
0 0 0 0 0 0 0 0 0 0 0 0 0 0 0 0 0 0 0 0 0 0 0 0 0 0 0 0 0 0 0 0 0 0 0 0 0 0 0 0 0 0 0 0
0 0 0 0 0 0 0 0 0 0 0 0 0 0 0 0 0 0 0 0 0 0 0 0 0 0 0 0 0 0 0 0 0 0 0 0 0 0 0 0 0 0 0 0
0 0 0 0 0 0 0 0 0 0 0 0 0 0 0 0 0 0 0 0 0 0 0 0 0 0 0 0 0 0 0 0 0 0 0 0 0 0 0 0 0 0 0 0
0 0 0 0 0 0 0 0 0 0 0 0 0 0 0 0 0 0 0 0 0 0 0 0 0 0 0 0 0 0 0 0 0 0 0 0 0 0 0 0 0 0 0 0
0 0 0 0 0 0 0 0 0 0 0 0 0 0 0 0 0 0 0 0 0 0 0 0 0 0 0 0 0 0 0 0 0 0 0 0 0 0 0 0 0 0 0 0
0 0 0 0 0 0 0 0 0 0 0 0 0 0 0 0 0 0 0 0 0 0 0 0 0 0 0 0 0 0 0 0 0 0 0 0 0 0 0 0 0 0 0 0
0 0 0 0 0 0 0 0 0 0 0 0 0 0 0 0 0 0 0 0 0 0 0 0 0 0 0 0 0 0 0 0 0 0 0 0 0 0 0 0 0 0 0 0
0 0 0 0 0 0 0 0 0 0 0 0 0 0 0 0 0 0 0 0 0 0 0 0 0 0 0 0 0 0 0 0 0 0 0 0 0 0 0 0 0 0 0 0
0 0 0 0 0 0 0 0 0 0 0 0 0 0 0 0 0 0 0 0 0 0 0 0 0 0 0 0 0 0 0 0 0 0 0 0 0 0 0 0 0 0 0 0
0 0 0 0 0 0 0 0 0 0 0 0 0 0 0 0 0 0 0 0 0 0 0 0 0 0 0 0 0 0 0 0 0 0 0 0 0 0 0 0 0 0 0 0
0 0 0 0 0 0 0 0 0 0 0 0 0 0 0 0 0 0 0 0 0 0 0 0 0 0 0 0 0 0 0 0 0 0 0 0 0 0 0 0 0 0 0 0
0 0 0 0 0 0 0 0 0 0 0 0 0 0 0 0 0 0 0 0 0 0 0 0 0 0 0 0 0 0 0 0 0 0 0 0 0 0 0 0 0 0 0 0
0 0 0 0 0 0 0 0 0 0 0 0 0 0 0 0 0 0 0 0 0 0 0 0 0 0 0 0 0 0 0 0 0 0 0 0 0 0 0 0 0 0 0 0
0 0 0 0 0 0 0 0 0 0 0 0 0 0 0 0 0 0 0 0 0 0 0 0 0 0 0 0 0 0 0 0 0 0 0 0 0 0 0 0 0 0 0 0
0 0 0 0 0 0 0 0 0 0 0 0 0 0 0 0 0 0 0 0 0 0 0 0 0 0 0 0 0 0 0 0 0 0 0 0 0 0 0 0 0 0 0 0
0 0 0 0 0 0 0 0 0 0 0 0 0 0 0 0 0 0 0 0 0 0 0 0 0 0 0 0 0 0 0 0 0 0 0 0 0 0 0 0 0 0 0 0
0 0 0 0 0 0 0 0 0 0 0 0 0 0 0 0 0 0 0 0 0 0 0 0 0 0 0 0 0 0 0 0 0 0 0 0 0 0 0 0 0 0 0 0
0 0 0 0 0 0 0 0 0 0 0 0 0 0 0 0 0 0 0 0 0 0 0 0 0 0 0 0 0 0 0 0 0 0 0 0 0 0 0 0 0 0 0 0
0 0 0 0 0 0 0 0 0 0 0 0 0 0 0 0 0 0 0 0 0 0 0 0 0 0 0 0 0 0 0 0 0 0 0 0 0 0 0 0 0 0 0 0
0 0 0 0 0 0 0 0 0 0 0 0 0 0 0 0 0 0 0 0 0 0 0 0 0 0 0 0 0 0 0 0 0 0 0 0 0 0 0 0 0 0 0 0
0 0 0 0 0 0 0 0 0 0 0 0 0 0 0 0 0 0 0 0 0 0 0 0 0 0 0 0 0 0 0 0 0 0 0 0 0 0 0 0 0 0 0 0
0 0 0 0 0 0 0 0 0 0 0 0 0 0 0 0 0 0 0 0 0 0 0 0 0 0 0 0 0 0 0 0 0 0 0 0 0 0 0 0 0 0 0 0
0 0 0 0 0 0 0 0 0 0 0 0 0 0 0 0 0 0 0 0 0 0 0 0 0 0 0 0 0 0 0 0 0 0 0 0 0 0 0 0 0 0 0 0
0 0 0 0 0 0 0 0 0 0 0 0 0 0 0 0 0 0 0 0 0 0 0 0 0 0 0 0 0 0 0 0 0 0 0 0 0 0 0 0 0 0 0 0
0 0 0 0 0 0 0 0 0 0 0 0 0 0 0 0 0 0 0 0 0 0 0 0 0 0 0 0 0 0 0 0 0 0 0 0 0 0 0 0 0 0 0 0
0 0 0 0 0 0 0 0 0 0 0 0 0 0 0 0 0 0 0 0 0 0 0 0 0 0 0 0 0 0 0 0 0 0 0 0 0 0 0 0 0 0 0 0
Wind_Speed
8 3 3 7 11 14 15 13 12 13 13 18 17 14 10 7 8 11 14 16 16 14 11 10 9 7 6 5 4 4 5 6 7 8 9 9 10 10 10 10 11 12 13 14
6 3 5 9 15 17 17 15 18 20 21 21 18 11 8 8 10 14 16 17 16 14 12 11 10 8 7 5 4 4 5 5 6 7 8 9 10 10 10 10 11 12 12 14
4 3 5 13 14 19 13 15 14 16 17 10 7 9 10 10 12 15 16 17 17 15 13 12 11 9 8 6 5 5 5 5 6 7 8 9 10 10 10 10 11 11 12 13
4 3 10 6 3 12 12 12 17 17 15 13 11 9 9 11 12 14 15 16 16 14 13 11 10 9 7 6 6 5 5 5 6 6 8 10 10 10 10 10 10 11 12 13
3 5 11 7 7 10 11 11 15 20 20 17 2 7 10 12 14 13 14 15 14 14 13 12 11 10 8 7 6 6 6 6 6 6 8 9 10 10 10 10 10 11 11 13
4 6 10 6 6 6 5 9 8 14 17 10 3 6 6 5 10 11 11 12 12 13 13 12 11 10 9 8 7 7 6 6 6 7 8 10 11 11 10 10 10 11 12 12
8 9 13 2 7 9 6 6 4 11 12 9 11 10 0 5 8 11 12 13 13 14 13 12 12 11 10 9 8 7 6 6 7 7 8 9 10 10 10 10 11 11 12 12
9 9 14 8 12 13 8 1 3 7 9 10 13 8 4 7 9 12 13 14 15 13 12 11 12 12 11 10 8 6 6 7 7 8 7 7 10 10 10 10 10 10 11 12
14 12 4 13 13 9 4 5 6 6 8 10 11 11 10 10 12 13 15 15 14 13 13 12 12 12 11 9 7 7 6 7 7 7 7 7 8 10 9 8 8 9 9 9
10 16 11 12 16 14 12 13 14 11 9 9 13 12 12 11 13 14 15 16 15 15 14 13 13 13 11 8 8 7 7 6 6 7 7 7 6 7 7 7 8 9 9 9
12 11 9 13 18 21 19 18 19 17 15 15 14 14 14 13 15 15 15 15 15 15 15 15 14 13 12 10 9 8 7 6 6 6 6 6 6 6 7 7 8 10 8 9
14 10 11 10 6 9 13 17 17 15 15 14 16 15 14 14 14 15 16 16 16 16 15 14 14 14 13 12 11 9 7 6 4 4 4 5 6 6 6 7 11 11 10 11
17 7 10 13 7 8 13 15 13 14 15 13 13 14 14 14 14 15 17 18 19 18 17 15 14 14 13 13 12 10 8 6 4 4 4 4 5 6 7 6 6 7 9 12
17 9 10 14 16 15 16 15 11 11 12 12 11 12 13 14 14 17 19 19 18 17 16 15 15 15 14 14 13 11 9 7 6 4 4 4 4 5 5 7 7 6 7 10
18 16 18 19 17 14 10 8 9 13 13 13 12 13 15 17 18 19 17 16 16 16 16 16 16 15 14 14 13 12 9 6 5 4 4 4 4 4 4 5 6 6 6 7
13 13 17 19 23 24 19 16 18 21 17 15 16 17 18 17 16 15 17 19 20 21 19 17 17 15 15 15 14 10 9 11 8 5 4 4 4 3 4 4 5 5 6 6
13 17 19 20 25 26 24 22 21 21 17 16 18 15 15 15 16 17 19 19 19 18 18 18 17 15 16 16 14 10 8 9 11 6 5 4 4 3 3 3 4 4 5 6
26 27 26 22 21 24 24 20 17 16 15 12 10 13 17 20 21 20 19 18 17 16 17 17 16 16 16 16 13 9 8 8 7 6 5 5 4 3 3 3 4 5 4 5
23 24 24 22 22 21 20 17 13 10 9 9 13 17 19 19 18 17 18 20 21 21 18 17 22 19 17 17 16 10 9 9 8 7 5 6 5 4 4 3 3 4 4 4
17 17 18 18 16 14 16 15 11 10 9 12 14 15 17 18 16 17 19 20 19 15 16 19 20 17 16 17 19 10 11 10 9 8 7 6 6 5 4 4 3 3 3 4
16 16 15 15 16 16 16 14 12 13 10 13 17 18 17 16 17 18 19 18 16 14 19 26 18 15 15 16 20 11 11 11 10 8 8 7 6 6 5 4 3 3 3 3
13 14 15 15 15 16 13 10 11 12 10 12 15 14 14 16 18 18 20 13 15 22 18 16 15 19 21 21 14 12 12 11 10 8 8 7 7 6 6 5 4 3 3 3
15 14 14 14 13 13 12 10 10 10 10 12 13 15 16 14 14 16 16 13 14 25 19 15 20 28 30 19 13 13 13 12 11 10 9 8 7 7 6 6 5 4 3 3
16 15 13 11 10 10 12 11 7 7 8 9 10 11 12 11 11 13 8 17 23 26 17 20 30 33 30 14 13 13 13 12 11 10 9 8 8 7 6 6 5 4 4 4
13 13 12 11 11 10 10 8 6 6 7 7 8 9 10 10 9 10 10 15 24 26 16 22 31 33 22 14 14 14 13 12 11 11 10 9 9 8 7 6 6 5 4 4
12 12 11 10 9 9 8 6 6 5 5 6 6 6 8 8 8 9 9 13 20 23 16 15 20 24 16 15 14 14 12 13 13 12 11 10 10 9 8 7 8 6 5 4
11 10 9 10 10 8 7 6 7 7 6 6 6 6 8 8 9 10 11 12 14 16 14 14 16 17 16 15 14 13 12 11 11 11 11 10 9 9 9 9 7 6 5 5
Wind_Direction
272 269 236 237 211 194 208 222 236 250 256 271 284 299 298 274 219 197 192 193 193 193 189 188 190 192 196 217 241 266 283 297 311 317 316 313 314 318 322 325 325 324 323 323
267 237 228 255 237 218 225 235 245 260 271 267 277 283 263 241 210 203 200 198 196 194 189 189 190 189 193 209 226 253 271 285 299 308 308 307 308 315 319 322 323 322 320 318
256 174 275 262 228 197 204 215 212 227 242 258 252 250 254 243 214 212 204 197 195 193 190 187 184 182 190 201 211 238 258 275 289 299 303 305 307 311 316 317 319 318 315 317
274 255 243 251 118 182 205 228 219 238 257 263 268 289 275 249 227 215 203 196 193 188 182 176 172 175 183 192 211 233 251 265 278 290 296 302 306 310 313 314 315 311 314 316
240 252 271 262 184 178 199 256 220 227 249 263 335 305 267 227 220 215 199 191 186 179 171 167 170 174 182 197 210 227 243 256 271 281 288 297 302 307 312 312 309 308 313 317
215 234 247 256 138 158 161 271 225 209 236 243 167 275 297 158 194 198 187 178 170 164 162 167 170 173 188 201 210 224 236 252 268 278 285 293 300 308 312 311 308 313 316 317
221 242 264 272 132 152 192 254 187 200 222 198 205 235 292 156 181 183 176 169 164 163 168 171 168 176 195 204 213 219 232 253 266 276 286 295 299 304 307 309 311 313 316 320
188 213 252 157 157 199 229 340 204 212 218 214 228 234 200 193 183 179 175 171 169 170 172 169 172 183 198 208 207 206 227 252 264 275 284 289 298 303 307 311 312 317 321 324
195 215 269 171 207 230 288 260 238 226 226 220 233 231 213 203 193 187 182 176 175 175 173 174 180 191 203 201 192 199 223 247 264 275 281 286 296 303 308 314 316 318 321 327
232 253 246 222 240 250 244 247 257 250 239 218 228 231 213 201 193 189 187 181 178 179 181 183 186 196 205 191 184 199 222 244 261 273 284 292 297 299 307 314 316 318 330 332
239 257 288 256 234 241 248 251 256 255 244 235 232 230 211 201 196 191 187 183 182 187 190 188 185 194 197 192 189 201 218 237 255 266 279 291 298 303 306 307 315 324 330 331
237 218 219 247 219 219 234 245 246 245 248 234 224 227 209 204 197 190 187 184 186 191 192 188 186 191 192 191 192 198 210 226 241 262 278 292 303 305 299 305 323 333 336 337
252 242 236 266 262 229 241 252 245 237 240 238 222 216 208 203 194 190 189 189 191 191 190 186 186 190 189 187 190 197 205 212 231 254 276 295 306 313 318 320 321 333 344 344
246 253 269 263 261 256 251 252 251 247 244 236 222 206 203 199 193 193 194 193 191 187 186 186 188 192 186 184 188 195 200 209 223 240 261 279 294 302 309 318 321 328 339 345
238 226 238 259 269 267 256 248 247 249 242 232 213 202 197 197 198 198 193 185 184 185 187 187 191 191 181 183 187 191 193 198 207 224 241 261 276 286 297 305 310 318 326 341
241 233 238 250 258 262 259 245 244 252 244 226 213 208 204 202 199 193 187 182 184 189 188 188 193 187 178 181 185 188 194 199 202 213 226 243 253 267 288 304 312 317 329 338
244 248 244 245 251 257 257 250 245 249 244 226 217 205 196 196 196 194 191 190 193 192 186 188 188 178 177 181 182 183 184 191 202 208 216 229 237 249 272 292 305 313 322 328
244 250 253 252 255 260 263 260 253 248 243 235 205 194 196 197 200 197 189 185 190 194 191 187 179 172 177 180 181 179 178 180 186 196 204 214 222 231 250 272 293 304 316 325
249 253 259 261 261 264 269 272 270 260 241 203 196 204 208 209 204 192 182 182 187 194 192 182 178 173 177 181 177 177 178 179 183 190 196 207 215 219 229 248 275 298 311 322
263 266 269 272 274 272 273 276 273 258 227 202 204 207 210 210 199 189 187 193 197 190 172 172 175 175 178 180 176 177 179 181 184 187 191 199 206 208 213 227 253 278 298 316
272 275 277 278 280 277 273 271 266 259 232 205 207 211 210 201 192 188 189 200 200 178 167 173 174 174 176 176 177 177 179 181 185 187 190 195 199 203 206 213 228 252 280 303
283 283 282 281 280 282 281 275 265 258 238 221 220 215 205 198 193 195 202 202 178 173 168 174 175 175 175 173 176 176 180 182 184 185 189 192 194 198 200 204 213 227 252 282
298 291 285 281 279 281 286 280 266 258 245 232 225 218 212 203 193 193 198 198 175 176 173 176 178 176 174 172 175 176 180 182 184 185 188 189 192 195 196 199 205 214 233 258
298 293 286 282 283 283 284 284 269 258 254 247 234 221 213 209 208 207 195 181 178 177 178 178 177 176 173 172 174 177 180 182 183 184 184 185 187 190 193 195 199 206 218 238
290 287 284 281 281 282 282 284 279 267 260 254 244 224 216 215 211 203 197 181 178 175 175 179 177 177 173 170 174 178 179 181 180 179 182 183 184 187 191 193 196 200 208 222
281 285 284 274 273 279 283 279 272 263 252 251 242 223 216 215 209 195 192 185 180 177 172 173 175 178 174 172 175 177 177 180 182 183 183 182 184 184 187 191 195 198 204 214
268 268 272 278 275 263 256 253 256 253 235 230 233 217 208 206 202 194 189 184 182 179 174 174 174 175 172 171 172 174 175 177 178 178 179 182 182 184 184 186 189 190 194 205